Date,Time,Ammonium-nitrogen,Total oxidised nitrogen,Nitrate-nitrogen,Nitrite-nitrogen,Suspended solids,Soluble reactive phosphorus,Dissolved organic carbon,Total phosphorus
Date,Time,Ammonium-nitrogen,Total oxidised nitrogen,Nitrate-nitrogen,Nitrite-nitrogen,Suspended solids,Soluble reactive phosphorus,Dissolved organic carbon,Total phosphorus
Units: Year month day,Units: Hour minute second,Units: milligrams per litre,Units: milligrams per litre,Units: milligrams per litre,Units: milligrams per litre,Units: milligrams per litre,Units: milligrams per litre,Units: milligrams per litre,Units: milligrams per litre
2012-04-26,16:17,< .03,< .2,< .196,< .004,5.87,0.0081,13.5,0.0441
2012-04-26,16:47,< .03,< .2,< .196,< .004,3.52,0.0081,12.6,0.0372
2012-04-26,17:17,< .03,< .2,< .196,< .004,6.82,0.00687,13.9,0.0416
2012-04-26,17:47,< .03,< .2,< .196,< .004,5.12,0.00705,12.7,0.0394
2012-04-26,18:17,< .03,< .2,< .196,< .004,5.92,0.0074,13.5,0.0384
2012-04-26,18:47,< .03,< .2,< .196,< .004,4.82,0.0074,12.3,0.0362
2012-04-26,19:17,< .03,< .2,< .196,< .004,3.02,0.0076,12.1,0.0344
2012-04-26,19:47,< .03,< .2,< .196,< .004,4.12,0.0066,12.8,0.0347
2012-04-26,20:17,< .03,< .2,< .196,< .004,4.62,0.0068,13,0.0334
2012-04-26,20:47,< .03,< .2,< .196,< .004,5.17,0.00603,12.5,0.0507
2012-04-26,21:17,< .03,< .2,< .196,< .004,< 3,0.0069,12.3,0.029
2012-04-26,21:47,< .03,< .2,< .196,< .004,< 3,0.0066,12.2,0.0272
2012-04-26,22:17,< .03,< .2,< .196,< .004,< 3,0.0071,10.9,0.0246
2012-04-26,22:47,< .03,< .2,< .196,< .004,8.07,0.0057,11.9,0.0444
2012-04-26,23:17,< .03,< .2,< .196,< .004,< 3,0.0051,12.3,0.0321
2012-04-26,23:47,< .03,< .2,< .196,< .004,4,0.0057,11.4,0.0312
2012-04-27,00:02,< .03,< .2,< .196,< .004,6.72,0.0053,48.4,0.0392
2012-04-27,00:17,< .03,< .2,< .196,< .004,4.42,0.0059,11.6,0.0331
2012-04-27,00:47,< .03,< .2,< .196,< .004,3.37,0.0057,11.9,0.0324
2012-04-27,01:17,< .03,< .2,< .196,< .004,3.05,0.0052,11.3,0.0315
2012-04-27,01:47,< .03,< .2,< .196,< .004,3.2,0.0054,11.1,0.0298
2012-04-27,02:17,< .03,< .2,< .196,< .004,3.3,0.0054,11.6,0.03
2012-04-27,02:47,< .03,< .2,< .196,< .004,4.02,0.0055,11.3,0.029
2012-04-27,03:17,< .03,< .2,< .196,< .004,3.6,0.00407,11.2,0.0287
2012-06-22,03:45,0.153,0.29,0.286,< .004,10.8,0.0037,38.9,0.0422
2012-06-22,04:45,0.157,0.44,0.436,< .004,10.4,0.0043,11.3,0.0478
2012-06-22,05:45,0.107,0.39,0.386,< .004,< 3,0.0052,11.6,0.0392
2012-06-22,06:45,0.094,0.36,0.356,< .004,5.78,0.005,11.2,0.0402
2012-06-22,07:45,0.088,0.36,0.356,< .004,12.1,0.00608,11.6,0.0559
2012-06-22,08:45,0.103,0.35,0.346,< .004,28.4,0.0116,11.5,0.094
2012-06-22,09:45,0.164,0.26,0.256,< .004,16.8,0.0113,11.9,0.0839
2012-06-22,10:45,0.102,< .2,< .196,< .004,12.6,0.0117,12.4,0.072
2012-06-22,11:45,0.084,< .2,< .196,< .004,12.8,0.0123,12.6,0.0711
2012-06-22,12:45,0.083,< .2,< .196,< .004,13.7,0.0125,12.8,0.071
2012-06-22,13:45,0.083,< .2,< .196,< .004,23.4,0.0114,13,0.0754
2012-06-22,14:45,0.079,< .2,< .196,< .004,12.6,0.0117,12.7,0.0681
2012-06-22,15:45,0.071,< .2,< .196,< .004,10.4,0.0108,12.8,0.0644
2012-06-22,16:45,0.071,< .2,< .196,< .004,9.9,0.01,13.2,0.0578
2012-06-22,17:45,0.069,< .2,< .196,< .004,16.5,0.0131,12.4,0.0719
2012-06-22,18:45,0.073,< .2,< .196,< .004,26.6,0.0125,11.4,0.0791
2012-06-22,19:45,0.081,< .2,< .196,< .004,22.3,0.0196,11.2,0.0804
2012-06-22,20:45,0.067,< .2,< .196,< .004,19.3,0.0201,10.8,0.0791
2012-06-22,21:45,0.067,< .2,< .196,< .004,16.8,0.0191,9.91,0.0713
2012-06-22,22:45,0.062,< .2,< .196,< .004,18.5,0.0218,9.95,0.0766
2012-06-22,23:45,0.064,< .2,< .196,< .004,16.8,0.0219,9.38,0.0712
2012-06-23,00:45,0.056,< .2,< .196,< .004,11.2,0.0189,9.21,0.0625
2012-06-23,01:45,0.057,< .2,< .196,< .004,12.2,0.0185,9.57,0.0592
2012-06-23,02:45,< .03,< .2,< .196,< .004,11.8,0.0209,9.88,0.0629
2012-06-28,12:00,0.197,< .2,< .196,< .004,18.9,0.0046,18.3,0.0603
2012-06-28,13:00,0.131,< .2,< .196,< .004,68.9,0.0097,9.93,0.189
2012-06-28,14:00,0.212,< .2,< .196,< .004,30.1,0.0215,12.3,0.16
2012-06-28,15:00,0.07,< .2,< .196,< .004,15.3,0.0085,13.5,0.0903
2012-06-28,16:00,0.057,< .2,< .196,< .004,12.1,0.0078,13.8,0.0785
2012-06-28,17:00,0.05,< .2,< .196,< .004,7.78,0.0069,15.6,0.0599
2012-06-28,18:00,0.046,< .2,< .196,< .004,6.38,0.00609,16.1,0.0581
2012-06-28,19:00,0.033,< .2,< .196,< .004,4.93,0.0057,16,0.0401
2012-06-28,20:00,< .03,< .2,< .196,< .004,5.78,0.00504,16.5,0.0482
2012-06-28,21:00,< .03,< .2,< .196,< .004,5.73,0.00601,16.1,0.0452
2012-06-28,22:00,< .03,< .2,< .196,< .004,4.93,0.0059,16.5,0.0418
2012-06-28,23:00,< .03,< .2,< .196,< .004,4.43,0.0056,15.6,0.0388
2012-06-29,00:00,< .03,< .2,< .196,< .004,4.08,0.0055,15,0.0389
2012-06-29,01:00,< .03,< .2,< .196,< .004,4.28,0.0057,15.3,0.0378
2012-06-29,02:00,< .03,< .2,< .196,< .004,3.48,0.0053,13.9,0.0356
2012-06-29,03:00,< .03,< .2,< .196,< .004,3.33,0.0056,14.3,0.0344
2012-06-29,04:00,< .03,< .2,< .196,< .004,< 3,0.0053,14.5,0.0345
2012-06-29,05:00,< .03,< .2,< .196,< .004,3.23,0.0057,13.5,0.0324
2012-06-29,06:00,< .03,< .2,< .196,< .004,3.03,0.00506,14,0.0335
2012-06-29,07:00,< .03,< .2,< .196,< .004,< 3,0.0049,13.7,0.0331
2012-06-29,08:00,< .03,< .2,< .196,< .004,3.67,0.00508,13,0.0324
2012-06-29,09:00,< .03,< .2,< .196,< .004,3.97,0.0056,13,0.0326
2012-06-29,10:00,< .03,< .2,< .196,< .004,3.33,0.0047,6.28,0.0366
2012-06-29,11:00,< .03,< .2,< .196,< .004,4.12,0.0053,12.4,0.0313
2012-08-15,16:45,0.056,< .2,< .196,< .004,77,0.0062,34.7,0.245
2012-08-15,17:45,0.878,< .2,< .196,< .004,80.4,0.248,18.1,0.859
2012-08-15,18:45,0.544,< .2,< .196,< .004,37.4,0.155,15.9,0.464
2012-08-15,19:45,0.315,< .2,< .196,< .004,18.3,0.0786,14.9,0.262
2012-08-15,20:45,0.217,< .2,< .196,< .004,13.9,0.0422,14.3,0.175
2012-08-15,21:45,0.165,< .2,< .196,< .004,10.9,0.0249,15.3,0.13
2012-08-15,22:45,0.151,< .2,< .196,< .004,8.97,0.0204,16,0.107
2012-08-15,23:45,0.102,< .2,< .196,< .004,7.37,0.0159,15.7,0.0907
2012-08-16,00:45,0.103,< .2,< .196,< .004,7.67,0.0148,15.6,0.0832
2012-08-16,01:45,0.102,< .2,< .196,< .004,7.92,0.014,16.4,0.078
2012-08-16,02:45,0.083,< .2,< .196,< .004,6.37,0.0125,13.7,0.0693
2012-08-16,03:45,0.085,< .2,< .196,< .004,6.42,0.0121,15.5,0.0703
2012-08-16,04:45,0.078,< .2,< .196,< .004,5.75,0.0117,15.6,0.0589
2012-08-16,05:45,0.085,< .2,< .196,< .004,5.9,0.0125,15.7,0.0582
2012-08-16,06:45,0.075,< .2,< .196,< .004,4.9,0.0109,15.7,0.0567
2012-08-16,07:45,0.078,< .2,< .196,< .004,5.5,0.0109,15.8,0.0569
2012-08-16,08:45,0.076,< .2,< .196,< .004,5.1,0.0103,16,0.0571
2012-08-16,09:45,0.07,< .2,< .196,< .004,5.1,0.0102,15.8,0.0503
2012-08-16,10:45,0.066,< .2,< .196,< .004,4.7,0.0086,16.2,0.0534
2012-08-16,11:45,0.071,< .2,< .196,< .004,< 3,0.0102,17.3,0.0486
2012-08-16,12:45,0.065,< .2,< .196,< .004,3.35,0.0084,16,0.0481
2012-08-16,13:45,0.061,< .2,< .196,< .004,3.7,0.0086,16,0.0449
2012-08-16,14:45,0.07,< .2,< .196,< .004,3.25,0.0099,15.3,0.0483
2012-08-16,15:45,0.069,< .2,< .196,< .004,< 3,0.0088,16.8,0.0513
2012-09-24,13:45,< .03,< .2,< .196,< .004,59.1,0.0075,11.3,0.195
2012-09-24,14:45,< .03,< .2,< .196,< .004,51.2,0.0094,8.64,0.133
2012-09-24,15:45,< .03,< .2,< .196,< .004,32.2,0.0099,9.14,0.104
2012-09-24,16:45,< .03,< .2,< .196,< .004,24.5,0.0111,9.13,0.0922
2012-09-24,17:45,< .03,< .2,< .196,< .004,17.6,0.0124,9.23,0.0837
2012-09-24,18:45,< .03,< .2,< .196,< .004,13.4,0.0121,9.56,0.0678
2012-09-24,19:45,< .03,< .2,< .196,< .004,10.2,0.0126,9.92,0.0606
2012-09-24,20:45,< .03,< .2,< .196,< .004,9.47,0.0099,10.9,0.0564
2012-09-24,21:45,< .03,< .2,< .196,< .004,8.82,0.0086,10.6,0.0577
2012-09-24,22:45,< .03,< .2,< .196,< .004,7.22,0.0097,11.1,0.0547
2012-09-24,23:45,< .03,< .2,< .196,< .004,6.57,0.0092,10.7,0.05
2012-09-25,00:45,< .03,< .2,< .196,< .004,8.07,0.0099,10.7,0.0572
2012-09-25,01:45,< .03,< .2,< .196,< .004,10.9,0.0116,9.94,0.0624
2012-09-25,02:45,< .03,< .2,< .196,< .004,9.87,0.0124,9.3,0.0659
2012-09-25,03:45,< .03,< .2,< .196,< .004,11,0.0137,9.65,0.0604
2012-09-25,04:45,< .03,< .2,< .196,< .004,11.6,0.0149,9.83,0.0682
2012-09-25,05:45,< .03,< .2,< .196,< .004,20,0.0189,8.49,0.0809
2012-09-25,06:45,< .03,< .2,< .196,< .004,15.6,0.0174,8.33,0.0676
2012-09-25,07:45,< .03,< .2,< .196,< .004,10.4,0.0151,8.33,0.0618
2012-09-25,08:45,< .03,< .2,< .196,< .004,9.18,0.0126,8.33,0.0566
2012-09-25,09:45,< .03,< .2,< .196,< .004,7.62,0.0116,9.17,0.0518
2012-09-25,10:45,< .03,< .2,< .196,< .004,8.08,0.0106,9.34,0.0473
2012-09-25,11:45,< .03,< .2,< .196,< .004,5.83,0.0097,9.55,0.046
2012-09-25,12:45,< .03,< .2,< .196,< .004,4.92,0.0095,9.58,0.0449
2013-10-03,22:00,< .03,< .2,< .196,< .004,53.6,0.0081,21.9,0.151
2013-10-03,23:00,0.093,< .2,< .196,< .004,48.8,0.0108,11,0.048
2013-10-04,07:00,0.045,< .2,0.194,0.0057,24.6,0.0095,11.6,0.0692
2013-10-04,08:00,< .03,< .2,< .196,< .004,34,0.0089,11.7,0.102
2013-10-04,09:00,0.031,< .2,< .196,< .004,37.1,0.0125,12.1,0.118
2013-10-04,10:00,< .03,< .2,< .196,< .004,47.4,0.0144,12.3,0.142
2013-10-04,11:00,0.031,< .2,< .196,< .004,60.9,0.0198,12.4,0.184
2013-10-04,12:00,0.066,< .2,< .196,< .004,43.9,0.0404,12.9,0.176
2013-10-04,15:00,< .03,< .2,< .196,< .004,10.3,0.0166,13.9,0.0771
2013-10-04,18:00,0.062,< .2,< .196,< .004,9.67,0.035,14.3,0.0901
2013-10-04,21:00,< .03,< .2,< .196,< .004,8.07,0.0145,13.4,0.056
2013-10-16,15:30,< .03,< .2,< .196,< .004,95.2,0.0155,12.9,0.221
2013-10-16,16:30,< .03,0.32,0.316,< .004,150,0.0333,9.86,0.377
2013-10-16,17:30,< .03,0.3,0.296,< .004,95.2,0.0459,10.3,0.331
2013-10-16,18:30,< .03,0.2,0.196,< .004,52.6,0.0347,9.71,0.196
2013-10-16,19:30,< .03,< .2,< .196,< .004,33,0.0227,9.83,0.131
2013-10-16,20:30,< .03,< .2,< .196,< .004,24.8,0.0165,10.5,0.104
2013-10-16,21:30,< .03,< .2,< .196,< .004,17,0.0158,10.3,0.0803
2013-10-17,00:30,< .03,0.3,0.296,< .004,11.9,0.0118,10.7,0.0585
2013-10-17,03:30,< .03,< .2,< .196,< .004,7.98,0.0098,10.9,0.0458
2013-10-17,06:30,< .03,< .2,< .196,< .004,6.23,0.009,10.3,0.0393
2013-10-17,09:30,< .03,< .2,< .196,< .004,13.1,0.0103,10.6,0.0574
2013-10-17,12:30,< .03,< .2,< .196,< .004,6.88,0.0075,10.5,0.0386
2013-10-19,07:43,< .03,< .2,< .196,< .004,10.3,0.0056,10.6,0.0455
2013-10-19,11:43,< .03,< .2,< .196,< .004,6.32,0.0062,10.3,0.0416
2013-10-19,16:43,< .03,< .2,< .196,< .004,40.3,0.0094,10.1,0.114
2013-10-19,18:43,< .03,< .2,< .196,< .004,41.4,0.0346,11.3,0.175
2013-10-19,20:43,< .03,< .2,< .196,< .004,16.2,0.0175,11.5,0.0772
2013-10-20,00:43,< .03,< .2,< .196,< .004,8.25,0.0097,11.9,0.0472
2013-10-20,02:43,< .03,< .2,< .196,< .004,14.3,0.0088,12,0.0553
2013-12-14,13:15,< .03,0.22,0.216,< .004,21.6,0.0045,6.53,0.0615
2013-12-14,15:15,< .03,0.27,0.266,< .004,53,0.0206,5.64,0.157
2013-12-14,17:15,< .03,0.27,0.266,< .004,42.3,0.0236,5.71,0.121
2013-12-14,19:15,< .03,0.28,0.276,< .004,21.4,0.0221,6.16,0.0874
2013-12-14,21:15,< .03,0.26,0.256,< .004,13.6,0.0156,6.5,0.0554
2013-12-14,23:15,< .03,0.26,0.256,< .004,8.03,0.0114,6.84,0.0415
2013-12-15,01:15,< .03,0.3,0.296,< .004,6.53,0.0101,7.05,0.0346
2013-12-15,03:15,< .03,0.28,0.276,< .004,5.28,0.0049,6.82,0.0292
2013-12-15,05:15,< .03,0.32,0.316,< .004,5.73,0.0069,6.48,0.0287
2013-12-15,07:15,< .03,0.33,0.326,< .004,3.88,0.0064,6.62,0.026
2013-12-15,09:15,< .03,0.38,0.376,< .004,3.78,0.0047,6.91,0.0211
2013-12-15,11:15,< .03,0.38,0.376,< .004,5.68,0.0056,5.93,0.0206
